User: anonymous   Login
Location: Unspecified
(0.0000°N, 0.0000°E)
Time: 10:20:12
(UTC+00:00)
Language:

Gonets-D1 - Orbit

View from above orbital plane
View from above orbital plane
View from above satellite
View from above satellite

Ground track
Ground track

The orbit data is extracted from the following two-line orbital elements,

1 23788U 96009B   17080.93704396 +.00000038 +00000-0 +15372-3 0  9991
2 23788 082.5700 303.2882 0006370 155.1613 204.9780 12.63137514972300
Epoch (UTC): 21 March 2017 22:29:20
Eccentricity: 0.0006370
inclination: 82.5700°
perigee height: 1405 km
apogee height: 1415 km
right ascension of ascending node: 303.2882°
argument of perigee: 155.1613°
revolutions per day: 12.63137514
mean anomaly at epoch: 204.9780°
orbit number at epoch: 97230

The dashed part of the orbit path shows where the satellite is in the earth's shadow,  

DLR